TimeEST,TemperatureF,Dew PointF,Humidity,Sea Level PressureIn,VisibilityMPH,Wind Direction,Wind SpeedMPH,Gust SpeedMPH,PrecipitationIn,Events,Conditions,WindDirDegrees,DateUTC
12:56 AM,28.9,28.0,96,30.01,1.5,SSE,6.9,-,N/A,,Overcast,150,2013-12-09 05:56:00
1:47 AM,30.2,28.4,93,29.95,2.0,South,4.6,-,N/A,,Overcast,180,2013-12-09 06:47:00
1:56 AM,30.0,28.9,96,29.98,2.5,South,4.6,-,N/A,,Overcast,170,2013-12-09 06:56:00
2:14 AM,30.2,28.4,93,29.93,3.0,South,8.1,-,N/A,,Overcast,180,2013-12-09 07:14:00
2:56 AM,32.0,30.0,92,29.97,4.0,SSW,6.9,-,N/A,,Overcast,210,2013-12-09 07:56:00
3:28 AM,32.0,30.2,93,29.93,2.5,SW,9.2,-,N/A,,Overcast,220,2013-12-09 08:28:00
3:56 AM,32.0,30.0,92,29.96,3.0,SW,9.2,-,N/A,,Overcast,230,2013-12-09 08:56:00
4:06 AM,32.0,30.2,93,29.92,2.5,SW,8.1,-,N/A,,Overcast,220,2013-12-09 09:06:00
4:40 AM,32.0,30.2,93,29.92,3.0,WSW,8.1,-,N/A,,Overcast,240,2013-12-09 09:40:00
4:56 AM,32.0,30.9,96,29.96,5.0,SW,10.4,-,N/A,,Overcast,230,2013-12-09 09:56:00
5:54 AM,33.8,30.2,87,29.94,8.0,SW,11.5,-,N/A,,Overcast,230,2013-12-09 10:54:00
5:56 AM,33.1,30.9,92,29.98,8.0,SW,10.4,-,N/A,,Overcast,230,2013-12-09 10:56:00
6:13 AM,33.8,30.2,87,29.94,8.0,SW,11.5,-,N/A,,Overcast,230,2013-12-09 11:13:00
6:56 AM,33.1,30.9,92,29.98,8.0,SW,10.4,-,N/A,,Overcast,230,2013-12-09 11:56:00
7:56 AM,33.1,30.9,92,30.01,2.5,WSW,11.5,-,0.00,Snow,Light Snow,250,2013-12-09 12:56:00
8:05 AM,33.8,30.2,87,29.97,1.5,WSW,10.4,-,0.00,Snow,Light Snow,240,2013-12-09 13:05:00
8:35 AM,33.8,30.2,87,29.98,3.0,WSW,11.5,-,0.00,Snow,Light Snow,250,2013-12-09 13:35:00
8:56 AM,33.1,30.0,89,30.02,9.0,WSW,13.8,18.4,0.00,,Overcast,250,2013-12-09 13:56:00
9:04 AM,33.8,28.4,81,29.99,10.0,WSW,20.7,25.3,N/A,,Overcast,250,2013-12-09 14:04:00
9:56 AM,32.0,27.0,82,30.06,10.0,West,19.6,26.5,N/A,,Overcast,260,2013-12-09 14:56:00
10:56 AM,32.0,25.0,75,30.08,10.0,West,19.6,25.3,0.01,,Overcast,260,2013-12-09 15:56:00
11:56 AM,30.9,24.1,76,30.09,10.0,West,16.1,26.5,0.05,,Overcast,260,2013-12-09 16:56:00
12:56 PM,30.0,21.9,72,30.09,10.0,West,17.3,27.6,0.01,,Overcast,270,2013-12-09 17:56:00
1:56 PM,28.9,21.9,75,30.07,10.0,West,12.7,-,N/A,,Overcast,260,2013-12-09 18:56:00
2:56 PM,30.0,21.9,72,30.09,10.0,WSW,16.1,21.9,0.01,,Overcast,250,2013-12-09 19:56:00
3:56 PM,28.9,21.9,75,30.11,10.0,West,17.3,20.7,N/A,,Overcast,260,2013-12-09 20:56:00
4:56 PM,28.9,21.0,72,30.14,10.0,WSW,16.1,21.9,N/A,,Overcast,250,2013-12-09 21:56:00
5:56 PM,28.0,21.0,75,30.14,10.0,West,16.1,25.3,N/A,,Overcast,260,2013-12-09 22:56:00
6:56 PM,28.0,21.0,75,30.16,10.0,West,13.8,-,N/A,,Overcast,260,2013-12-09 23:56:00
7:56 PM,27.0,21.0,78,30.17,8.0,West,12.7,-,N/A,,Overcast,270,2013-12-10 00:56:00
8:41 PM,26.6,19.4,74,30.14,9.0,West,15.0,-,N/A,,Scattered Clouds,260,2013-12-10 01:41:00
8:56 PM,27.0,19.9,75,30.17,9.0,West,10.4,-,N/A,,Partly Cloudy,280,2013-12-10 01:56:00
9:56 PM,26.1,19.0,75,30.16,9.0,West,11.5,-,N/A,,Scattered Clouds,260,2013-12-10 02:56:00
10:56 PM,25.0,17.1,72,30.15,10.0,West,10.4,-,N/A,,Mostly Cloudy,260,2013-12-10 03:56:00
11:56 PM,24.1,17.1,75,30.16,9.0,West,11.5,-,N/A,,Overcast,260,2013-12-10 04:56:00